User: anonymous   Login
Location: Stockholm
(59.3330°N, 18.0500°E)
Time: 08:55:00
(UTC+02:00)
Language:

METEOR M2 - Orbit

View from above orbital plane
View from above orbital plane
View from above satellite
View from above satellite

Ground track
Ground track

The orbit data is extracted from the following two-line orbital elements,

1 40069U 14037A   24197.90009359  .00000227  00000-0  12376-3 0  9995
2 40069  98.4372 190.8561 0004508 277.4619  82.6047 14.20995685519705
Epoch (UTC): 15 July 2024 21:36:08
Eccentricity: 0.0004508
inclination: 98.4372°
perigee height: 819 km
apogee height: 825 km
right ascension of ascending node: 190.8561°
argument of perigee: 277.4619°
revolutions per day: 14.20995685
mean anomaly at epoch: 82.6047°
orbit number at epoch: 51970

The dashed part of the orbit path shows where the satellite is in the earth's shadow,  

DLR